Antalya, Turkey

6:18 PM +03 on September 22, 2017 (GMT +0300)
Antalya

Weather History for LTAI - December, 2012

Change the Weather History Date:

Wednesday, December 5, 2012

  Actual Average Record
Temperature  
Mean Temperature 52 °F -  
Max Temperature 61 °F 62 °F 71 °F (2008)
Min Temperature 42 °F 46 °F 39 °F (2015)
Degree Days  
Heating Degree Days 14    
Growing Degree Days 2 (Base 50)    
Moisture  
Dew Point 36 °F    
Average Humidity 56    
Maximum Humidity 76    
Minimum Humidity 34    
Precipitation  
Precipitation 0.01 in 0.30 in - ()
Sea Level Pressure  
Sea Level Pressure 29.79 in    
Wind  
Wind Speed 8 mph ()    
Max Wind Speed 17 mph    
Max Gust Speed -    
Visibility 6.2 miles    
Events      
Averages and records for this station are not official NWS values.
T = Trace of Precipitation, MM = Missing Value Source: Averaged Metar Reports

Daily Weather History Graph

Daily Weather History Graph

Search for Another Location

Airport or City:

Trip Planner

Search our weather history database for the weather conditions in past years. The results will help you decide how hot, cold, wet, or windy it might be!

Date:

Astronomy

Dec. 05, 2012 Rise Set
Actual Time 6:55 AM EET 4:40 PM EET
Civil Twilight 6:26 AM EET 5:09 PM EET
Nautical Twilight 5:54 AM EET 5:41 PM EET
Astronomical Twilight 5:22 AM EET 6:12 PM EET
Moon 11:02 PM EET (12/5) 11:15 AM EET (12/5)
Length of Visible Light 10h 42m
Length of Day
9h 45m
Waning Gibbous, 63% of the Moon is Illuminated
Dec 5
Waning Gibbous
Dec 6
Last Quarter
Dec 13
New
Dec 20
First Quarter
Dec 28
Full

Hourly Weather History & Observations

Time (EET) Temp. Windchill Dew Point Humidity Pressure Visibility Wind Dir Wind Speed Gust Speed Precip Events Conditions
12:20 AM 50.0 °F - 30.2 °F 47% 29.77 in - NNW 15.0 mph - N/A   Clear
12:50 AM 48.2 °F - 30.2 °F 50% 29.80 in - NW 13.8 mph - N/A   Clear
1:20 AM 48.2 °F - 30.2 °F 50% 29.77 in - NW 13.8 mph - N/A   Clear
1:50 AM 50.0 °F - 30.2 °F 47% 29.77 in - NNW 17.3 mph - N/A   Clear
2:00 AM 49 °F - 30 °F 35% 29.78 in 6 mi NNW 17.3 mph - -  
2:20 AM 48.2 °F - 30.2 °F 50% 29.77 in - NNW 13.8 mph - N/A   Clear
2:50 AM 46.4 °F 41.5 °F 30.2 °F 53% 29.77 in - NNW 10.4 mph - N/A   Clear
3:20 AM 44.6 °F 39.7 °F 32.0 °F 61% 29.77 in - North 9.2 mph - N/A   Clear
3:50 AM 46.4 °F 42.9 °F 30.2 °F 53% 29.77 in - North 6.9 mph - N/A   Clear
4:20 AM 42.8 °F 38.6 °F 32.0 °F 66% 29.77 in - North 6.9 mph - N/A   Clear
4:50 AM 44.6 °F 39.7 °F 30.2 °F 57% 29.77 in - North 9.2 mph - N/A   Clear
5:20 AM 44.6 °F 40.7 °F 30.2 °F 57% 29.80 in - NW 6.9 mph - N/A   Clear
5:50 AM 44.6 °F 40.7 °F 30.2 °F 57% 29.80 in - North 6.9 mph - N/A   Clear
6:20 AM 42.8 °F 38.0 °F 30.2 °F 61% 29.80 in - NNW 8.1 mph - N/A   Clear
6:50 AM 44.6 °F 39.2 °F 32.0 °F 61% 29.80 in - North 10.4 mph - N/A   Clear
7:20 AM 46.4 °F 41.5 °F 30.2 °F 53% 29.80 in - North 10.4 mph - N/A   Clear
7:50 AM 46.4 °F 41.1 °F 30.2 °F 53% 29.80 in - North 11.5 mph - N/A   Clear
8:00 AM 47 °F - 31 °F 40% 29.80 in 6 mi North 11.5 mph - -  
8:20 AM 50.0 °F - 32.0 °F 50% 29.80 in - NNW 10.4 mph - N/A   Clear
8:50 AM 50.0 °F - 33.8 °F 54% 29.80 in - North 6.9 mph - N/A   Clear
9:20 AM 53.6 °F - 33.8 °F 47% 29.83 in - NNE 4.6 mph - N/A   Clear
9:50 AM 53.6 °F - 32.0 °F 44% 29.83 in - NNE 8.1 mph - N/A   Clear
10:20 AM 55.4 °F - 32.0 °F 41% 29.83 in - NNE 9.2 mph - N/A   Clear
10:50 AM 57.2 °F - 33.8 °F 41% 29.83 in 6.2 mi North 10.4 mph - N/A   Scattered Clouds
11:20 AM 57.2 °F - 32.0 °F 38% 29.80 in 6.2 mi Variable 3.5 mph - N/A   Scattered Clouds
11:50 AM 57.2 °F - 35.6 °F 44% 29.80 in 6.2 mi NE 3.5 mph - N/A   Scattered Clouds
12:20 PM 59.0 °F - 32.0 °F 36% 29.80 in 6.2 mi ENE 3.5 mph - N/A   Scattered Clouds
12:50 PM 60.8 °F - 39.2 °F 45% 29.80 in 6.2 mi Variable 2.3 mph - N/A   Scattered Clouds
1:20 PM 60.8 °F - 39.2 °F 45% 29.80 in 6.2 mi Variable 2.3 mph - N/A   Scattered Clouds
1:50 PM 60.8 °F - 39.2 °F 45% 29.77 in 6.2 mi Variable 3.5 mph - N/A   Scattered Clouds
2:00 PM 61 °F - 40 °F 34% 29.78 in 6 mi SSE 3.5 mph - -   Partly Cloudy
2:20 PM 60.8 °F - 41.0 °F 48% 29.77 in 6.2 mi Variable 3.5 mph - N/A   Partly Cloudy
2:50 PM 59.0 °F - 41.0 °F 51% 29.80 in 6.2 mi South 5.8 mph - N/A   Scattered Clouds
4:50 PM 55.4 °F - 44.6 °F 67% 29.80 in 6.2 mi North 4.6 mph - N/A   Scattered Clouds
5:20 PM 53.6 °F - 44.6 °F 72% 29.80 in 6.2 mi NNE 3.5 mph - N/A   Scattered Clouds
5:50 PM 51.8 °F - 44.6 °F 76% 29.80 in 6.2 mi North 2.3 mph - N/A   Scattered Clouds
6:20 PM 51.8 °F - 44.6 °F 76% 29.80 in 6.2 mi ENE 3.5 mph - N/A   Scattered Clouds
6:50 PM 51.8 °F - 44.6 °F 76% 29.80 in 6.2 mi North 4.6 mph - N/A   Scattered Clouds
7:20 PM 51.8 °F - 44.6 °F 76% 29.80 in 6.2 mi NNW 4.6 mph - N/A   Scattered Clouds
7:50 PM 51.8 °F - 44.6 °F 76% 29.80 in 6.2 mi North 6.9 mph - N/A   Scattered Clouds
8:00 PM 52 °F - 45 °F 71% 29.80 in 6 mi North 6.9 mph - -   Partly Cloudy
8:20 PM 51.8 °F - 44.6 °F 76% 29.80 in 6.2 mi North 5.8 mph - N/A   Scattered Clouds
8:50 PM 51.8 °F - 44.6 °F 76% 29.80 in 6.2 mi North 4.6 mph - N/A   Scattered Clouds
9:20 PM 51.8 °F - 44.6 °F 76% 29.80 in 6.2 mi North 4.6 mph - N/A   Scattered Clouds
9:50 PM 53.6 °F - 41.0 °F 62% 29.80 in 6.2 mi North 4.6 mph - N/A   Scattered Clouds
10:20 PM 51.8 °F - 42.8 °F 71% 29.80 in 6.2 mi NW 4.6 mph - N/A   Scattered Clouds
10:50 PM 53.6 °F - 41.0 °F 62% 29.77 in 6.2 mi NNE 5.8 mph - N/A   Scattered Clouds
11:20 PM 53.6 °F - 41.0 °F 62% 29.77 in 6.2 mi ENE 6.9 mph - N/A   Scattered Clouds
11:50 PM 53.6 °F - 42.8 °F 67% 29.77 in 6.2 mi Variable 2.3 mph - N/A   Scattered Clouds